Powrót do katalogu

GORIZONT 16

AktywnyŁącznośćGEO
NORAD 19397·PAYLOAD·🇷🇺 Russia

Wystrzelony Aug 18, 1988 z Baikonur Cosmodrome

Loading…

TLE

ŚwieżeSource: Space-Track

Epoka: Sep 14, 2026, 12:47 UTC

1 19397U 88071A   26257.53318873 -.00000285  00000-0  00000-0 0  9999
2 19397  11.4234 329.2429 0010864  88.7797 275.7064  0.99988646139139

Śledź GORIZONT 16 w czasie rzeczywistym z AllMySat

Download on the App Store